Weather History for Winchester, TN

Change the Weather History Date:

Saturday, November 15, 2014

  Actual Average (KTHA) Record (KTHA)
Temperature  
Mean Temperature 32 °F -  
Max Temperature 46 °F 58 °F 53 °F (2013)
Min Temperature 19 °F 37 °F 21 °F (2014)
Degree Days  
Heating Degree Days 32    
Moisture  
Dew Point 21 °F    
Average Humidity 62    
Maximum Humidity 86    
Minimum Humidity 39    
Precipitation  
Precipitation 0.00 in - - ()
Sea Level Pressure  
Sea Level Pressure 30.29 in    
Wind  
Wind Speed 4 mph (SE)    
Max Wind Speed 13 mph    
Max Gust Speed -    
Visibility 10 miles    
Events      
Averages and records for this station are not official NWS values.
T = Trace of Precipitation, MM = Missing Value Source: NWS Daily Summary

Daily Weather History Graph

Daily Weather History Graph

Search for Another Location

Airport:

Trip Planner

Search our weather history database for the weather conditions in past years. The results will help you decide how hot, cold, wet, or windy it might be!

Date:

Astronomy

Nov. 15, 2014 Rise Set
Actual Time 7:19 AM EST 5:38 PM EST
Civil Twilight 6:52 AM EST 6:05 PM EST
Nautical Twilight 6:21 AM EST 6:35 PM EST
Astronomical Twilight 5:51 AM EST 7:05 PM EST
Moon 12:45 AM EST (11/15) 1:47 PM EST (11/15)
Length of Visible Light 11h 13m
Length of Day
10h 19m
Last Quarter, 40% of the Moon is Illuminated
Nov 15
Last Quarter
Nov 22
New
Nov 29
First Quarter
Dec 6
Full
Dec 14
Last Quarter

Hourly Weather History & Observations

Time (EST) Temp. Windchill Dew Point Humidity Pressure Visibility Wind Dir Wind Speed Gust Speed Precip Events Conditions
12:15 AM 21.2 °F - 15.8 °F 80% 30.35 in 10.0 mi Calm Calm - N/A   Clear
12:35 AM 21.2 °F - 15.8 °F 80% 30.34 in 10.0 mi Calm Calm - N/A   Clear
12:55 AM 19.4 °F - 15.8 °F 86% 30.34 in 10.0 mi Calm Calm - N/A   Clear
1:55 AM 21.2 °F 14.9 °F 15.8 °F 80% 30.33 in 10.0 mi NNE 4.6 mph - N/A   Clear
2:15 AM 21.2 °F 14.9 °F 15.8 °F 80% 30.34 in 10.0 mi North 4.6 mph - N/A   Partly Cloudy
2:35 AM 21.2 °F - 15.8 °F 80% 30.33 in 10.0 mi Calm Calm - N/A   Partly Cloudy
2:55 AM 19.4 °F 12.8 °F 15.8 °F 86% 30.32 in 10.0 mi NNE 4.6 mph - N/A   Clear
3:15 AM 19.4 °F 11.5 °F 15.8 °F 86% 30.32 in 10.0 mi NNE 5.8 mph - N/A   Clear
3:35 AM 19.4 °F - 14.0 °F 80% 30.32 in 10.0 mi Calm Calm - N/A   Clear
3:55 AM 19.4 °F - 15.8 °F 86% 30.33 in 10.0 mi Calm Calm - N/A   Clear
4:15 AM 19.4 °F - 15.8 °F 86% 30.33 in 10.0 mi Calm Calm - N/A   Scattered Clouds
4:35 AM 19.4 °F - 15.8 °F 86% 30.33 in 10.0 mi Calm Calm - N/A   Scattered Clouds
4:55 AM 19.4 °F 11.5 °F 15.8 °F 86% 30.32 in 10.0 mi NNE 5.8 mph - N/A   Clear
5:15 AM 19.4 °F - 15.8 °F 86% 30.32 in 10.0 mi Calm Calm - N/A   Clear
5:35 AM 21.2 °F - 15.8 °F 80% 30.32 in 10.0 mi Calm Calm - N/A   Partly Cloudy
5:55 AM 21.2 °F 16.4 °F 15.8 °F 80% 30.33 in 10.0 mi NNE 3.5 mph - N/A   Mostly Cloudy
6:15 AM 19.4 °F - 15.8 °F 86% 30.33 in 10.0 mi Calm Calm - N/A   Partly Cloudy
6:35 AM 19.4 °F 14.3 °F 15.8 °F 86% 30.33 in 10.0 mi NNE 3.5 mph - N/A   Mostly Cloudy
6:55 AM 19.4 °F 11.5 °F 15.8 °F 86% 30.34 in 10.0 mi North 5.8 mph - N/A   Partly Cloudy
7:15 AM 19.4 °F 12.8 °F 15.8 °F 86% 30.34 in 10.0 mi North 4.6 mph - N/A   Clear
7:35 AM 19.4 °F - 15.8 °F 86% 30.36 in 10.0 mi Calm Calm - N/A   Clear
7:55 AM 19.4 °F 14.3 °F 15.8 °F 86% 30.36 in 10.0 mi North 3.5 mph - N/A   Clear
8:15 AM 23.0 °F 18.4 °F 17.6 °F 80% 30.37 in 10.0 mi NE 3.5 mph - N/A   Clear
8:35 AM 26.6 °F 18.2 °F 17.6 °F 69% 30.37 in 10.0 mi East 8.1 mph - N/A   Clear
8:55 AM 28.4 °F 19.7 °F 19.4 °F 69% 30.36 in 10.0 mi East 9.2 mph - N/A   Clear
9:15 AM 30.2 °F 22.6 °F 19.4 °F 64% 30.37 in 10.0 mi SE 8.1 mph - N/A   Clear
9:35 AM 30.2 °F 23.4 °F 21.2 °F 69% 30.37 in 10.0 mi ESE 6.9 mph - N/A   Partly Cloudy
9:55 AM 33.8 °F 27.0 °F 21.2 °F 60% 30.37 in 10.0 mi ESE 8.1 mph - N/A   Partly Cloudy
10:15 AM 35.6 °F 27.5 °F 23.0 °F 60% 30.37 in 10.0 mi ESE 11.5 mph - N/A   Partly Cloudy
10:35 AM 37.4 °F 29.3 °F 23.0 °F 56% 30.36 in 10.0 mi SE 12.7 mph - N/A   Clear
10:55 AM 37.4 °F 29.8 °F 23.0 °F 56% 30.36 in 10.0 mi ESE 11.5 mph - N/A   Clear
11:15 AM 39.2 °F 32.0 °F 24.8 °F 56% 30.35 in 10.0 mi SSE 11.5 mph - N/A   Clear
11:35 AM 41.0 °F 35.8 °F 23.0 °F 49% 30.35 in 10.0 mi SSE 8.1 mph - N/A   Clear
11:55 AM 41.0 °F 35.2 °F 23.0 °F 49% 30.34 in 10.0 mi South 9.2 mph - N/A   Clear
12:15 PM 42.8 °F 37.0 °F 23.0 °F 46% 30.32 in 10.0 mi SE 10.4 mph - N/A   Clear
12:35 PM 42.8 °F 37.0 °F 21.2 °F 42% 30.31 in 10.0 mi SSE 10.4 mph - N/A   Clear
12:55 PM 42.8 °F 37.0 °F 23.0 °F 46% 30.30 in 10.0 mi SE 10.4 mph - N/A   Clear
1:15 PM 42.8 °F 38.0 °F 21.2 °F 42% 30.28 in 10.0 mi SSE 8.1 mph - N/A   Clear
1:35 PM 44.6 °F 39.7 °F 21.2 °F 39% 30.27 in 10.0 mi SSE 9.2 mph - N/A   Clear
1:55 PM 44.6 °F 40.2 °F 21.2 °F 39% 30.26 in 10.0 mi SE 8.1 mph - N/A   Clear
2:15 PM 44.6 °F 40.2 °F 21.2 °F 39% 30.25 in 10.0 mi SE 8.1 mph - N/A   Clear
2:35 PM 46.4 °F 41.9 °F 23.0 °F 40% 30.24 in 10.0 mi SE 9.2 mph - N/A   Clear
2:55 PM 46.4 °F 42.4 °F 23.0 °F 40% 30.24 in 10.0 mi SE 8.1 mph - N/A   Clear
3:15 PM 46.4 °F 41.9 °F 23.0 °F 40% 30.23 in 10.0 mi SE 9.2 mph - N/A   Clear
3:35 PM 46.4 °F 41.1 °F 23.0 °F 40% 30.22 in 10.0 mi SSE 11.5 mph - N/A   Clear
3:55 PM 46.4 °F 41.5 °F 23.0 °F 40% 30.22 in 10.0 mi South 10.4 mph - N/A   Clear
4:15 PM 46.4 °F 41.9 °F 23.0 °F 40% 30.22 in 10.0 mi SSE 9.2 mph - N/A   Clear
4:35 PM 46.4 °F 41.5 °F 23.0 °F 40% 30.22 in 10.0 mi SSE 10.4 mph - N/A   Clear
4:55 PM 46.4 °F 42.4 °F 23.0 °F 40% 30.22 in 10.0 mi SSE 8.1 mph - N/A   Clear
5:15 PM 44.6 °F 40.7 °F 23.0 °F 43% 30.23 in 10.0 mi SSE 6.9 mph - N/A   Clear
5:35 PM 42.8 °F 40.1 °F 23.0 °F 46% 30.23 in 10.0 mi SSE 4.6 mph - N/A   Clear
5:55 PM 39.2 °F 35.0 °F 23.0 °F 52% 30.22 in 10.0 mi SSE 5.8 mph - N/A   Clear
6:15 PM 39.2 °F 37.0 °F 21.2 °F 49% 30.22 in 10.0 mi South 3.5 mph - N/A   Clear
6:35 PM 39.2 °F - 23.0 °F 52% 30.22 in 10.0 mi Calm Calm - N/A   Clear
6:55 PM 37.4 °F - 23.0 °F 56% 30.22 in 10.0 mi Calm Calm - N/A   Clear
7:15 PM 35.6 °F - 23.0 °F 60% 30.23 in 10.0 mi Calm Calm - N/A   Scattered Clouds
7:35 PM 33.8 °F - 24.8 °F 70% 30.23 in 10.0 mi Calm Calm - N/A   Overcast
7:55 PM 35.6 °F - 26.6 °F 70% 30.23 in 10.0 mi Calm Calm - N/A   Overcast
8:15 PM 37.4 °F - 28.4 °F 70% 30.23 in 10.0 mi Calm Calm - N/A   Overcast
8:35 PM 37.4 °F 33.8 °F 28.4 °F 70% 30.22 in 10.0 mi SE 4.6 mph - N/A   Mostly Cloudy
8:55 PM 39.2 °F 33.6 °F 23.0 °F 52% 30.22 in 10.0 mi SSE 8.1 mph - N/A   Overcast
9:15 PM 42.8 °F 38.0 °F 24.8 °F 49% 30.21 in 10.0 mi SSE 8.1 mph - N/A   Overcast
9:35 PM 42.8 °F 36.6 °F 23.0 °F 46% 30.22 in 10.0 mi SSE 11.5 mph - N/A   Overcast
9:55 PM 42.8 °F 38.0 °F 23.0 °F 46% 30.22 in 10.0 mi SSE 8.1 mph - N/A   Overcast
10:15 PM 42.8 °F 38.0 °F 23.0 °F 46% 30.21 in 10.0 mi SSE 8.1 mph - N/A   Overcast
10:35 PM 42.8 °F 39.3 °F 23.0 °F 46% 30.21 in 10.0 mi South 5.8 mph - N/A   Overcast
10:55 PM 42.8 °F 36.6 °F 24.8 °F 49% 30.21 in 10.0 mi South 11.5 mph - N/A   Overcast
11:15 PM 42.8 °F 40.1 °F 24.8 °F 49% 30.22 in 10.0 mi South 4.6 mph - N/A   Overcast
11:35 PM 42.8 °F 39.3 °F 24.8 °F 49% 30.22 in 10.0 mi South 5.8 mph - N/A   Overcast
11:55 PM 44.6 °F 39.7 °F 24.8 °F 46% 30.22 in 10.0 mi South 9.2 mph - N/A   Overcast